Погода в Багдаде

Ирак     33°17′12″N   44°24′12″E
темп.,
°C
ветер,
м/с
пор.,
м/с
влажн.,
%
обл.,
%
осадки,
мм/ч
давл.,
гПа
погр.,
м
3 августа, вт
вт300:00+39ссз6111118 0.0 997217
03:00+35с341377 0.0 99777
06:00+36зсз34135 0.0 99862
09:00+42зсз56140 0.0 999676
12:00+46з6681 0.0 9994591
15:00+46з5687 0.0 9975288
18:00+44сз10111114 0.0 9981283
21:00+41сз69155 0.0 999263
4 августа, ср
ср400:00+39сз581771 0.0 1000165
03:00+37ссз451754 0.0 999101
06:00+37сз45184 0.0 100195
09:00+42сз55131 0.0 1001573
12:00+46зсз5790 0.0 10014363
15:00+47зсз8784 0.0 9995095
18:00+45зсз78100 0.0 9981938
21:00+42зсз69110 0.0 1000208
5 августа, чт
чт500:00+39ссз59141 0.0 999227
03:00+37сз46180 0.0 99998
06:00+36сз611200 0.0 1000231
09:00+43сз79140 0.0 1000824
12:00+47сз74105 0.0 9994138
15:00+48зсз6485 0.0 9975230
18:00+45сз910105 0.0 9961417
21:00+42сз691295 0.0 998336
6 августа, пт
пт600:00+42зсз710115 0.0 997353
03:00+39сз7121262 0.0 996310
06:00+39сз591496 0.0 997223
09:00+42сз771363 0.0 998567
12:00+46сз43105 0.0 9972101
15:00+48з32826 0.0 9964891
18:00+46ююз339100 0.0 9952766
21:00+40зюз121539 0.0 997137
7 августа, сб
сб700:00+40ссз561593 0.0 998137
03:00+39ссз461647 0.0 998137
06:00+37ссз58145 0.0 999187
09:00+43ссз56115 0.0 1000752
12:00+47сз64963 0.0 9994431
15:00+45юв559100 0.0 9991566
18:00+45сз7884 0.0 9991006
21:00+41сз61095 0.0 1001224